RH
23 22 23 22 18 13 13 12 11 12 13 14 15 16 17 18 18 18 19 18 17 17 16 16 16 17 17 17 18 17 16 16 15 15 14 14 13 12 12 11 11 10 9 11 9 11 10 8 17 22 49 73 41 15 15 9 9 11 16 19 16 19 21 22 23 21 20 18 18 22 30 37 38 33 27 28 29 31 41 40 36 43 39 34 34 34
26 30 31 27 21 16 13 12 12 12 12 13 12 13 13 14 15 15 15 15 15 15 14 14 14 15 15 15 15 15 14 14 13 14 13 12 12 11 11 10 10 10 8 10 8 10 10 8 18 26 49 71 44 18 15 10 10 11 15 19 16 18 21 23 23 21 20 19 18 17 19 25 33 34 27 30 33 27 34 45 53 59 47 36 36 36
36 42 34 27 24 20 16 12 12 13 13 13 12 12 12 11 12 12 12 12 12 12 12 12 12 12 13 13 13 13 12 12 12 12 11 11 10 9 10 9 9 9 8 9 7 9 10 9 21 30 50 73 50 21 16 11 10 11 13 18 17 17 21 23 22 21 21 19 18 18 16 16 24 36 34 33 35 27 27 42 56 59 47 38 37 36
40 42 29 23 24 22 19 14 12 13 13 14 13 12 12 11 10 10 10 10 10 10 10 10 10 10 11 11 11 11 10 11 10 10 10 10 9 9 9 8 9 8 8 9 7 11 12 14 25 32 50 75 55 25 17 11 10 11 13 17 18 18 21 23 22 23 23 21 19 18 18 15 17 30 36 33 32 27 26 36 45 46 40 37 35 32
31 29 21 21 23 23 22 18 15 15 14 14 15 14 13 12 11 10 9 9 9 10 10 9 9 9 10 10 10 10 9 9 9 9 9 8 9 8 8 8 8 7 8 7 7 13 17 19 27 30 49 77 61 31 20 13 10 10 12 16 18 18 20 22 23 25 25 23 22 20 18 18 16 20 27 28 25 23 27 33 38 38 35 32 29 27
21 19 19 24 26 26 25 23 21 20 18 16 15 15 14 13 12 11 10 10 10 10 9 9 9 9 9 9 9 9 9 9 9 9 9 8 8 8 8 8 8 7 8 7 7 15 21 25 30 33 55 79 64 35 23 16 11 10 11 15 19 19 20 22 23 25 26 24 22 22 20 20 18 17 19 20 19 18 22 28 32 33 30 26 24 23
17 16 19 23 25 26 26 24 24 23 23 23 19 15 15 13 13 12 11 11 11 11 11 10 10 9 9 9 10 9 8 9 9 9 9 8 8 8 8 8 7 7 7 7 7 14 24 32 31 35 63 83 64 38 27 19 12 10 11 14 19 21 20 21 23 24 26 25 23 23 22 21 21 19 17 16 16 16 17 20 23 24 23 21 21 21
16 15 17 20 22 24 25 26 26 25 29 33 26 18 15 14 13 13 13 13 13 12 12 13 12 11 11 10 10 10 9 10 11 10 9 9 9 9 8 8 8 7 7 7 7 12 24 36 32 34 66 85 62 38 32 23 14 11 11 13 18 22 21 21 22 23 25 25 24 23 22 22 22 21 20 18 16 15 16 16 17 18 18 19 20 21
17 16 16 17 20 24 28 29 27 27 34 38 31 22 17 15 13 14 14 13 14 14 14 14 14 15 14 11 11 12 13 13 13 11 11 10 10 9 9 9 8 8 7 6 7 12 24 38 37 40 71 87 62 40 37 27 15 12 11 12 16 21 23 21 21 22 24 25 24 23 22 22 22 22 23 22 20 18 17 18 19 19 20 21 22 25
18 18 17 16 20 26 31 31 28 30 36 37 32 27 22 17 14 14 14 14 14 15 15 14 15 17 17 14 13 13 15 15 14 13 12 11 11 10 9 9 9 8 7 7 11 17 26 37 43 55 81 90 64 45 42 30 17 14 11 11 14 19 23 23 22 22 23 24 24 23 23 22 22 22 23 24 24 24 23 23 23 23 24 24 24 24
18 19 19 17 18 21 24 25 26 29 31 30 30 30 26 21 18 15 14 14 15 16 16 15 15 18 19 18 17 15 15 15 14 13 12 12 11 10 10 9 9 9 7 9 15 23 29 32 47 74 95 93 68 51 49 35 20 15 12 12 13 15 21 23 23 23 22 24 24 24 24 23 23 23 23 23 24 25 26 26 25 25 24 24 23 23
17 18 19 19 18 16 17 19 22 26 27 25 27 29 28 25 22 20 18 15 15 15 16 16 16 17 19 20 19 17 15 14 13 13 13 13 11 11 12 10 10 10 8 11 15 24 26 26 54 90 102 96 73 57 57 43 23 16 13 13 13 13 17 21 22 24 23 24 25 25 25 25 25 24 23 23 24 24 25 25 26 26 26 26 25 25
16 17 19 19 19 18 17 17 19 23 26 26 25 26 27 26 23 22 21 19 17 16 15 16 17 18 19 20 20 19 17 13 11 12 13 13 11 11 12 11 12 10 8 11 16 27 27 27 65 100 104 99 79 62 66 53 27 17 14 13 13 12 14 17 20 22 23 24 25 26 26 26 26 26 24 23 23 24 24 25 26 28 29 29 29 28
16 16 18 19 19 21 20 18 17 19 23 24 24 23 23 24 24 24 24 23 23 20 16 16 17 17 18 18 19 19 17 13 10 10 13 13 12 12 12 12 12 11 11 13 23 45 46 36 66 100 106 103 81 64 73 62 32 18 15 14 13 12 12 13 16 19 21 23 24 26 27 27 27 26 25 24 23 25 25 26 26 28 29 29 30 30
19 18 18 17 18 22 24 23 20 19 20 21 21 21 21 21 22 24 25 26 27 23 16 15 16 16 17 17 18 18 17 14 10 9 12 13 13 12 13 14 13 11 11 12 29 65 73 54 66 95 107 105 86 71 79 70 39 19 15 15 15 13 12 12 13 16 19 21 23 25 25 26 27 26 26 25 23 24 25 27 27 26 28 30 31 31
18 19 18 17 19 24 26 26 24 22 22 20 19 19 19 20 21 22 24 24 25 21 16 16 17 16 16 17 17 17 18 16 12 10 10 12 13 11 12 13 13 12 10 14 38 77 89 73 73 88 99 104 97 87 87 77 46 22 16 16 16 16 12 11 13 14 17 21 21 23 25 26 27 26 26 25 24 24 24 27 27 26 28 31 32 32
18 17 18 19 21 25 27 25 23 24 24 22 21 19 18 19 20 21 22 22 24 21 17 17 19 19 18 17 16 16 17 16 14 11 10 12 13 12 12 13 13 13 12 18 45 81 94 83 79 87 94 101 104 99 96 85 56 28 19 18 17 18 15 11 12 13 16 20 21 23 24 25 26 26 26 25 24 24 24 26 28 27 27 31 33 32
22 19 18 18 21 25 26 25 23 22 22 23 23 22 20 21 22 21 22 22 23 22 19 18 18 21 21 18 16 16 16 16 14 13 11 11 12 13 14 13 14 14 14 24 52 86 99 88 84 95 100 100 103 105 101 91 66 38 24 23 20 19 16 12 11 12 15 18 20 22 23 24 25 25 26 26 25 25 25 26 28 28 28 30 31 30
28 26 23 19 19 21 23 26 26 21 18 20 22 24 23 22 21 21 20 22 24 26 25 22 19 22 23 20 17 17 16 16 15 14 13 11 11 14 14 14 15 14 20 42 69 92 103 92 80 90 103 103 100 104 102 91 75 50 30 28 27 20 15 14 12 12 14 18 19 20 21 22 24 25 26 26 25 25 25 26 27 29 29 29 29 30
29 31 29 25 22 20 20 25 27 22 19 19 20 22 23 20 20 20 19 20 23 25 27 25 22 22 23 21 19 19 17 15 16 15 14 13 13 14 14 15 16 14 19 44 70 87 99 97 80 76 94 105 100 100 102 92 78 58 37 32 31 21 14 13 12 11 13 16 19 19 20 21 22 24 25 25 25 25 25 26 28 29 30 30 30 30
27 29 31 30 29 26 23 22 22 20 21 22 22 21 20 19 19 20 19 19 19 20 22 22 19 19 21 20 20 21 19 17 16 16 15 15 14 14 14 14 16 15 15 28 51 76 95 99 85 71 79 98 102 101 102 95 81 61 41 32 29 19 14 13 12 11 12 14 17 19 19 20 21 22 23 24 24 24 25 26 28 29 30 30 30 30
24 26 28 29 31 31 28 23 20 18 18 20 21 21 21 20 20 21 20 19 18 18 18 17 16 16 18 18 17 19 22 20 18 17 16 16 15 14 14 13 14 16 15 16 28 55 86 99 90 73 69 85 99 102 100 94 81 60 39 28 23 17 14 13 12 12 12 12 15 18 19 19 19 20 22 23 24 25 25 26 27 29 29 30 30 30
22 24 25 26 28 30 29 27 24 21 18 17 17 18 20 21 22 23 21 19 19 19 18 16 14 15 15 16 15 16 20 22 21 19 18 18 17 15 15 13 13 14 15 15 15 30 65 89 89 75 68 75 88 97 99 94 82 59 36 25 21 16 15 14 12 12 12 12 13 16 19 20 19 19 20 22 24 25 25 25 26 28 28 30 31 30
20 21 22 23 24 26 27 27 27 25 22 20 17 15 17 18 20 22 21 21 21 20 19 17 15 15 14 14 14 14 16 20 23 22 20 19 19 18 16 14 14 13 14 16 14 19 44 76 89 79 69 71 81 89 94 94 85 59 35 26 22 16 15 15 13 13 13 12 13 14 17 20 20 20 19 19 21 23 24 25 26 26 27 28 29 29
18 19 20 20 21 22 24 25 25 25 24 23 20 17 16 15 16 17 18 21 23 21 19 17 15 15 15 13 14 14 14 15 19 22 22 21 20 20 19 16 13 13 13 14 15 17 35 70 96 91 73 66 74 83 85 87 86 63 35 28 25 16 14 15 13 14 13 13 14 13 14 16 17 19 19 18 19 19 21 23 23 24 25 26 26 26
19 18 18 18 19 19 21 22 22 23 24 24 23 21 18 16 15 15 15 17 21 22 21 18 14 14 15 15 14 13 13 13 14 18 21 22 21 20 21 20 16 13 13 13 14 15 25 53 82 92 85 73 71 78 78 78 83 67 37 30 30 19 12 13 13 14 14 14 14 14 14 14 14 15 17 18 19 18 18 20 20 21 23 23 23 24
25 22 19 18 17 17 18 19 20 21 22 23 23 23 22 20 18 17 15 14 15 18 21 19 14 14 15 16 15 14 13 13 13 14 18 21 22 21 21 21 19 16 13 12 13 14 19 34 52 71 89 94 85 79 75 74 79 67 39 33 37 23 11 10 11 13 15 15 16 15 14 14 13 12 14 15 17 18 17 17 17 17 19 20 21 22
28 27 24 20 17 16 16 17 18 19 20 21 22 23 23 23 22 21 19 16 14 14 16 17 15 15 16 16 16 15 14 14 13 13 15 18 21 22 22 21 21 20 16 12 12 13 15 23 34 51 78 101 104 96 89 87 90 75 43 36 43 30 14 10 9 11 15 15 16 16 15 15 14 13 13 13 14 16 16 16 15 15 16 17 18 19
27 29 28 24 20 17 15 15 16 17 18 18 19 21 21 22 23 23 22 20 18 15 14 13 13 14 15 17 17 16 15 14 14 13 13 15 18 20 22 22 21 22 19 14 11 12 13 16 25 39 63 90 104 107 105 103 104 91 57 46 55 41 20 15 12 10 14 15 15 17 16 16 16 14 14 15 15 15 15 15 15 15 16 16 16 17
24 26 27 27 24 20 16 14 14 15 16 16 18 18 19 20 21 22 22 22 22 20 17 14 12 12 13 15 16 16 16 16 15 14 13 13 14 17 21 23 22 22 22 18 11 11 13 14 17 25 46 73 92 102 107 105 106 101 73 61 72 61 33 25 20 12 13 15 14 16 17 17 17 16 16 16 16 17 16 16 17 17 17 18 18 19
23 24 24 25 25 23 20 16 14 13 14 15 16 16 17 18 18 19 20 21 22 22 20 17 14 12 11 12 13 14 15 17 17 15 13 12 13 14 18 22 23 22 22 21 16 11 11 13 15 17 29 55 79 94 103 104 105 104 82 64 74 73 49 36 31 21 16 15 15 16 16 16 16 16 16 15 14 15 16 16 18 19 19 20 22 23
25 24 23 23 23 23 22 19 16 14 13 13 15 15 15 16 16 16 17 18 19 21 21 19 17 15 13 11 11 11 12 15 17 17 14 12 12 13 15 18 22 23 22 21 20 15 11 11 14 15 19 38 67 90 102 104 105 106 90 68 67 71 57 45 42 34 24 20 20 17 13 12 14 14 13 13 12 13 13 15 17 18 18 19 19 21
28 26 24 23 23 21 21 21 19 16 14 13 13 14 14 14 14 14 14 15 16 17 19 19 18 17 15 13 11 10 10 11 14 17 16 13 12 12 13 16 20 24 25 23 21 19 15 11 11 14 15 23 48 78 98 105 106 107 97 77 69 71 63 50 46 42 37 36 36 30 19 11 11 12 12 11 11 10 11 13 14 14 13 13 13 15
33 30 27 24 23 22 20 20 19 18 17 15 13 12 13 13 14 14 13 13 14 15 16 16 17 16 16 16 14 11 10 9 10 14 16 15 13 12 12 14 17 22 26 26 23 20 18 14 11 12 15 16 29 56 85 102 106 106 103 89 75 74 70 56 45 42 43 50 59 60 45 24 13 12 11 10 10 10 10 10 10 9 9 9 10 12
38 34 31 28 25 23 21 19 19 19 18 16 14 13 12 11 12 13 13 13 12 13 14 14 15 15 15 16 16 13 12 10 9 11 12 14 15 12 12 13 15 20 24 26 24 21 19 17 12 10 14 16 18 30 59 94 109 105 105 101 86 77 75 64 50 42 42 50 68 83 76 50 30 21 16 12 11 10 10 9 8 8 8 8 9 9
40 36 33 31 28 25 23 20 20 19 18 16 14 13 12 11 11 11 12 13 13 12 12 11 12 13 13 15 16 15 13 12 11 10 10 12 15 13 12 12 14 17 21 23 24 22 20 17 12 9 11 16 22 23 37 77 108 106 102 106 97 81 75 68 57 48 44 48 62 79 80 63 48 42 33 21 15 13 11 9 8 8 8 8 9 8
39 37 35 32 29 27 25 22 19 18 18 17 15 13 13 12 11 11 10 11 12 12 12 11 10 10 10 12 13 14 14 13 12 12 10 10 12 14 13 12 13 16 17 20 23 23 21 18 13 12 11 11 21 26 24 52 97 109 101 104 105 91 78 72 66 56 50 50 58 68 68 57 51 55 52 36 23 18 15 12 10 9 9 9 9 8
31 34 35 33 31 28 26 24 21 18 18 18 15 13 13 12 11 11 10 10 11 12 12 11 10 8 8 9 10 12 12 12 12 13 12 10 10 12 13 12 13 14 14 17 21 23 23 20 14 13 13 10 17 22 16 33 80 108 101 95 101 99 88 79 74 65 55 54 58 65 67 59 51 55 60 48 30 22 19 14 11 10 10 10 9 9
23 25 28 31 31 30 29 27 24 21 19 18 16 13 12 12 11 11 10 10 10 10 11 12 11 9 8 8 8 9 10 11 11 11 12 12 10 10 12 13 14 14 13 14 18 22 24 23 19 14 13 18 24 23 18 29 65 98 103 93 89 92 93 89 83 73 63 57 58 63 70 68 56 53 58 50 30 20 19 16 14 12 11 10 10 9
19 20 20 23 25 26 28 28 27 24 20 18 17 15 12 11 10 10 10 11 10 9 10 11 11 11 9 7 8 8 8 8 9 10 10 12 12 11 11 12 13 14 13 12 15 20 22 23 24 17 12 18 23 19 24 47 76 96 103 99 90 84 86 90 88 80 68 61 61 63 68 71 63 50 49 44 30 22 22 21 19 17 13 11 11 10
17 17 17 17 18 19 21 23 25 25 22 19 18 16 13 10 9 10 10 11 12 11 10 10 10 11 10 8 8 8 8 7 7 8 8 9 12 13 11 11 12 13 14 12 12 17 22 23 26 22 15 15 15 11 23 59 91 101 101 102 96 83 76 78 83 80 66 59 65 70 69 72 70 57 46 43 37 31 33 38 42 36 22 12 11 12
15 15 15 15 15 15 15 16 18 20 20 19 17 15 13 11 9 10 9 10 12 12 11 10 10 10 10 10 8 8 8 7 7 7 7 7 9 13 13 12 11 11 13 13 11 14 19 21 24 24 19 15 13 12 26 57 82 93 98 102 99 85 71 66 72 77 67 56 67 81 76 68 70 64 52 47 46 45 54 71 80 70 47 24 14 15
13 13 13 13 13 14 13 13 14 14 14 15 15 15 13 12 10 9 9 9 10 10 11 11 10 9 9 9 9 8 7 8 7 6 6 6 6 10 12 13 12 10 11 12 11 12 15 18 20 22 21 18 13 11 24 47 58 56 63 81 90 85 72 60 57 67 70 62 66 82 83 74 74 74 64 55 52 53 67 88 96 87 71 49 29 24
14 13 12 11 10 11 12 12 12 12 11 11 12 12 12 11 10 9 8 9 9 9 10 10 10 10 10 9 9 9 8 8 8 6 6 6 6 6 10 13 13 11 9 11 11 12 15 17 18 21 22 20 16 11 14 33 47 38 31 49 73 84 83 73 58 52 58 66 71 72 72 72 75 79 79 72 59 53 66 89 96 89 85 76 56 44
17 15 13 11 10 9 9 9 10 11 11 11 10 10 10 9 9 9 8 8 9 9 9 9 9 10 10 9 9 9 9 9 8 7 6 6 6 5 7 10 13 13 10 9 10 12 14 15 20 30 32 23 17 15 10 18 44 52 34 29 55 84 97 95 83 66 53 58 73 71 58 57 67 78 89 87 67 53 62 86 98 93 90 91 80 66
16 15 13 11 11 9 8 8 8 8 9 9 9 9 9 8 7 8 8 8 8 8 8 8 8 8 9 10 9 8 9 9 8 9 8 6 6 6 5 7 11 13 12 10 9 10 13 13 18 36 49 37 19 16 12 10 32 57 48 28 40 78 101 100 101 99 73 54 68 74 55 50 67 80 86 81 61 49 62 86 99 94 88 92 91 81
14 14 12 10 10 9 8 8 7 7 7 7 7 7 7 8 7 6 6 6 6 7 8 8 7 7 7 9 9 8 9 9 8 9 8 7 7 6 6 6 7 10 13 12 9 9 10 11 13 32 61 61 34 18 15 10 18 42 54 43 38 64 97 104 102 106 92 70 73 73 54 53 71 75 69 62 50 45 63 90 103 98 90 90 90 84
14 12 11 9 8 7 7 7 7 7 7 6 6 6 5 6 7 6 6 5 4 6 7 7 8 7 6 7 8 8 8 8 8 9 8 8 8 7 7 6 5 8 12 12 11 10 8 8 9 24 59 79 59 29 16 12 12 19 37 49 44 47 77 102 100 96 94 89 86 75 53 51 62 57 46 45 46 46 60 84 102 106 100 93 83 76
15 14 11 9 8 7 6 6 5 5 6 5 6 6 5 5 5 5 5 5 4 4 5 5 7 8 6 6 6 7 8 7 7 8 8 8 9 7 7 7 5 6 9 11 12 11 8 8 7 12 40 73 76 50 22 12 13 11 16 40 51 44 56 85 93 88 87 89 89 77 54 46 52 48 36 35 40 43 52 71 93 107 107 97 82 72
17 15 12 10 9 7 6 6 5 4 5 4 4 5 4 4 4 4 4 4 4 4 4 4 5 6 7 7 5 6 8 8 7 8 8 8 9 8 7 8 7 6 6 9 12 12 9 9 8 6 19 50 74 68 38 16 14 12 10 27 47 48 48 63 78 85 87 86 82 69 52 54 67 65 50 41 38 34 38 56 76 91 101 102 89 76
19 16 13 11 11 9 7 6 5 4 4 4 4 4 3 3 4 4 4 3 3 4 3 4 4 4 6 7 5 5 6 7 7 7 7 7 8 8 8 7 7 7 6 6 9 12 11 9 9 7 8 27 57 71 55 29 15 11 10 18 31 39 42 46 58 73 81 83 77 54 41 62 89 86 73 66 52 31 28 42 51 54 70 94 98 83
Wind_Speed
70 69 67 68 69 69 69 69 69 68 67 68 69 70 70 69 68 66 65 63 60 60 59 56 55 54 53 53 52 51 50 49 48 48 47 46 44 42 41 40 38 36 33 30 28 26 23 21 19 17 14 15 15 13 11 9 7 10 14 15 16 16 15 14 14 13 12 11 10 10 10 9 9 11 12 12 13 15 16 17 17 17 16 16 17 18
71 70 70 71 70 70 69 69 67 66 66 66 68 69 69 69 68 66 65 63 62 62 60 58 57 56 55 54 53 52 51 50 49 49 48 47 45 44 42 41 38 36 33 30 28 26 23 21 19 16 14 14 14 12 11 10 8 10 14 16 17 17 16 15 15 14 13 11 10 9 9 9 8 10 11 11 11 13 15 16 15 15 15 15 16 17
73 72 74 73 72 71 70 69 67 66 65 65 66 68 68 69 68 67 66 64 63 62 61 61 60 58 56 55 53 53 51 50 50 49 48 47 45 44 42 40 38 35 33 30 28 27 24 21 18 16 14 14 14 12 11 10 8 10 14 17 18 19 18 17 17 16 14 11 10 9 8 8 8 9 11 11 11 13 14 15 14 14 15 14 14 15
76 77 78 76 74 73 72 71 68 66 65 64 66 67 68 68 67 66 66 64 62 61 61 61 60 58 56 55 54 53 51 49 49 48 47 46 44 43 41 39 37 35 33 31 29 27 24 21 19 16 14 15 14 12 11 11 10 10 15 18 19 20 20 19 18 17 15 13 10 9 8 8 8 9 10 11 11 12 13 14 14 14 14 13 13 14
81 82 81 78 76 74 73 72 69 66 65 65 66 66 67 67 67 66 65 63 61 59 60 60 59 57 55 54 53 52 50 48 48 47 47 45 44 42 40 38 36 34 33 32 29 26 23 22 20 17 15 16 15 14 12 11 11 11 15 19 20 21 22 21 20 19 17 14 12 9 8 8 8 8 9 10 11 12 13 13 14 14 13 13 13 13
83 83 81 79 77 76 74 73 71 69 67 67 67 67 67 67 67 65 63 61 59 57 57 57 57 57 55 52 50 50 49 47 46 46 45 44 43 41 39 37 35 34 33 32 29 26 23 22 20 17 17 17 16 15 13 12 12 11 14 19 22 22 23 22 21 20 18 16 13 10 9 8 8 8 8 10 11 12 13 13 13 13 12 11 11 11
84 83 82 81 80 78 77 75 73 71 69 68 69 69 69 68 67 64 62 59 57 55 53 52 53 54 53 50 47 48 48 45 44 44 43 43 41 39 37 36 35 33 32 32 30 27 24 22 21 20 18 17 17 15 14 12 12 11 13 19 23 24 24 23 22 22 20 17 14 12 10 9 7 7 7 9 10 11 12 13 12 12 11 10 10 10
85 84 84 83 82 80 78 77 75 74 71 71 73 72 70 69 67 64 62 59 57 54 51 49 48 49 50 49 46 44 43 42 41 42 42 40 39 37 36 34 34 33 33 32 31 29 26 24 23 22 19 18 17 15 14 12 12 12 13 19 24 26 25 24 23 23 22 19 17 14 12 10 8 6 6 7 9 10 11 11 11 11 10 9 8 8
85 85 84 83 82 81 80 79 78 76 74 74 75 74 72 70 68 65 63 60 57 54 52 49 47 45 47 49 45 40 39 39 39 39 40 39 37 36 34 33 33 33 33 33 32 30 27 25 25 23 20 19 18 16 15 13 12 13 14 18 25 28 27 26 24 24 23 21 18 15 12 10 8 6 6 6 7 9 10 10 10 10 9 8 7 7
86 85 85 84 83 82 82 81 80 78 77 77 77 75 74 72 69 66 64 61 58 55 53 51 48 45 45 46 45 43 42 41 40 38 38 38 36 35 33 32 33 33 33 33 33 31 29 27 26 24 21 20 20 18 16 14 12 13 14 16 23 29 30 28 26 25 24 22 19 16 13 11 9 7 6 6 7 8 9 10 9 9 8 7 6 6
88 87 86 85 85 85 85 84 82 81 81 80 79 77 76 74 71 68 65 63 60 57 55 52 49 46 45 45 47 48 46 44 41 39 39 38 36 34 33 32 33 33 33 33 33 32 30 29 28 25 22 22 21 19 18 16 13 13 14 16 21 28 31 31 30 27 26 24 22 19 16 14 12 9 7 7 8 8 9 9 9 8 7 6 6 5
89 89 88 87 87 86 86 85 84 83 83 83 81 79 78 77 74 71 68 65 63 59 57 54 51 49 47 47 49 51 50 47 44 42 40 39 36 34 32 32 32 33 33 33 33 32 31 31 29 25 24 24 22 21 20 18 15 14 15 17 20 25 30 32 32 30 28 27 25 22 20 18 16 14 11 9 9 10 10 9 9 8 7 7 6 5
90 89 89 89 88 86 86 86 85 85 85 84 83 81 80 79 77 74 71 68 66 63 60 57 55 52 51 51 52 53 53 50 46 42 40 39 36 34 33 32 32 32 32 32 32 32 32 32 30 27 26 26 24 23 21 19 17 15 16 18 20 23 28 31 32 33 31 30 28 26 24 22 21 19 17 13 11 12 12 11 10 9 8 7 6 5
90 90 90 90 88 87 86 86 86 85 86 85 84 83 81 80 78 76 73 71 69 67 64 61 59 57 56 56 56 56 55 52 45 41 40 38 37 35 33 32 32 31 31 31 31 31 32 33 31 29 29 28 25 24 22 21 19 17 17 18 20 23 26 28 30 32 33 33 32 30 29 27 25 23 21 17 14 14 14 13 12 10 9 8 7 6
92 91 91 91 89 88 88 87 87 86 86 85 85 84 82 81 80 78 76 74 72 71 69 65 64 62 61 60 58 56 54 51 45 39 38 38 38 36 34 33 32 32 31 31 31 32 32 32 31 30 30 29 27 24 23 22 20 19 18 19 21 23 24 26 28 30 31 32 33 33 32 31 29 26 24 21 18 16 16 16 14 12 11 10 8 7
94 93 93 91 90 89 89 89 89 87 86 86 86 85 84 82 81 80 78 77 75 75 73 70 68 66 64 62 59 56 54 52 47 40 37 37 38 36 34 33 33 31 31 30 31 33 34 33 32 32 31 31 29 26 23 22 21 20 20 21 23 23 23 25 27 28 29 29 30 31 32 32 30 28 26 23 20 19 18 18 17 15 13 11 10 9
95 95 94 93 91 91 91 91 91 90 89 88 87 86 84 83 82 81 80 79 78 77 76 74 72 70 67 63 60 57 54 53 50 45 40 38 37 36 34 33 32 31 31 31 33 35 36 35 34 33 32 31 29 27 24 23 22 22 22 22 24 25 24 24 26 28 29 29 28 28 30 31 30 29 26 24 21 20 20 20 19 17 15 13 12 11
98 96 95 94 93 93 93 93 92 92 92 90 88 87 86 84 83 82 81 79 79 79 79 78 75 72 69 64 61 58 55 54 52 48 45 41 38 37 37 35 33 32 32 32 33 35 36 36 36 36 34 32 30 28 26 25 24 24 23 23 24 25 25 24 25 28 29 29 27 27 28 28 28 28 26 25 23 22 22 21 20 19 17 16 14 13
100 99 98 96 95 95 94 94 94 94 93 91 90 89 88 87 85 83 82 80 79 79 80 80 77 73 70 66 63 60 57 55 54 51 49 45 41 40 39 37 34 33 33 34 36 37 38 37 38 39 37 33 30 30 29 28 26 25 24 24 25 25 25 24 25 27 29 29 27 26 26 27 27 27 27 27 26 24 24 22 21 20 19 18 16 14
103 102 101 99 98 97 96 96 97 95 93 92 91 91 91 90 88 86 85 83 82 81 81 82 80 75 72 69 66 63 59 57 56 55 52 49 47 45 42 39 38 35 35 37 38 39 40 39 39 40 39 36 32 31 31 30 27 25 25 25 26 26 26 26 26 27 29 30 29 27 26 27 27 28 28 28 27 26 25 23 23 22 21 19 18 16
104 104 103 102 101 100 99 99 98 97 95 93 93 92 91 91 89 88 88 87 85 84 83 84 83 78 74 71 69 66 63 60 58 57 56 53 52 50 46 43 41 39 38 39 40 41 41 41 41 41 41 38 34 32 33 32 29 27 26 26 27 27 27 27 26 25 27 30 30 29 28 28 28 28 29 29 28 27 26 25 25 24 22 21 19 17
106 106 106 106 104 104 103 102 100 98 96 95 94 93 92 91 90 89 88 88 87 86 86 86 84 80 76 74 71 69 67 64 61 60 59 57 56 54 51 47 45 44 41 41 42 43 43 44 43 43 42 40 38 36 35 33 31 29 28 27 28 28 28 27 26 24 25 29 31 30 29 28 29 29 30 29 29 28 27 26 26 25 24 22 20 19
109 108 108 109 108 107 107 106 103 101 99 97 96 94 93 92 91 90 89 89 88 87 87 86 85 82 79 76 74 72 70 68 66 64 61 60 58 57 56 53 49 47 44 42 42 43 45 46 45 44 43 42 40 39 36 34 33 31 28 27 28 29 28 27 26 25 25 27 31 32 31 30 29 30 30 30 30 29 28 27 26 26 25 23 21 20
111 110 111 111 111 110 110 109 107 105 102 100 98 96 94 94 93 91 91 90 90 88 87 86 86 84 81 79 77 75 73 72 70 68 65 63 61 60 59 58 54 50 46 43 42 43 44 46 45 45 44 43 42 41 38 35 34 32 29 29 29 29 29 28 27 26 25 27 29 32 33 33 32 31 31 31 30 30 29 28 27 27 25 24 23 21
112 112 112 113 113 113 112 111 110 108 106 104 101 99 97 95 94 93 93 92 91 90 88 87 87 85 83 81 80 77 76 74 73 71 69 67 65 62 61 60 58 54 49 46 44 43 43 45 45 45 44 43 42 42 39 36 35 34 32 31 30 30 30 28 27 27 26 25 26 29 33 34 33 33 32 31 30 30 29 29 28 27 26 25 24 23
111 112 112 113 114 114 112 112 111 110 108 106 104 102 100 98 96 95 95 94 92 91 89 88 88 86 84 83 82 80 78 76 74 73 72 71 69 66 63 62 61 58 54 50 47 45 44 45 45 44 43 43 42 41 39 37 36 35 34 32 31 30 30 29 28 27 26 25 25 28 30 32 33 33 32 31 30 29 29 29 28 28 27 26 25 24
109 110 112 113 114 114 112 112 111 110 109 108 106 105 103 102 100 98 97 95 94 92 91 90 88 87 85 84 83 82 80 78 77 75 74 74 72 69 66 65 64 62 59 54 50 48 47 46 46 44 43 43 42 41 38 36 35 36 34 33 32 31 30 28 28 27 26 26 26 27 28 30 31 30 29 29 30 29 29 29 28 28 27 26 25 25
109 110 111 113 114 114 113 112 112 111 110 109 108 107 106 105 103 102 100 98 96 94 93 91 89 88 86 85 84 84 82 81 79 77 77 76 75 72 70 67 66 65 63 59 53 50 49 49 49 48 46 45 44 43 40 37 36 36 35 34 32 31 30 28 27 26 26 26 26 26 27 28 28 26 25 25 26 28 29 28 28 27 26 26 25 24
107 109 111 113 114 116 116 115 114 113 112 110 110 109 108 107 106 105 103 101 99 97 95 92 90 89 88 86 85 85 84 83 82 80 79 78 78 75 73 70 68 66 66 64 58 53 52 52 51 50 49 49 48 46 44 41 40 39 37 35 34 32 31 29 27 26 25 26 26 26 26 26 26 25 24 24 24 26 27 27 26 25 24 25 24 22
102 106 110 112 114 116 117 117 116 115 113 112 111 111 111 110 110 108 107 105 103 101 98 95 92 91 90 89 88 87 86 85 84 83 81 80 79 78 76 74 71 69 68 67 64 58 54 54 53 52 52 52 51 49 47 45 44 43 41 38 36 35 32 31 29 27 26 26 26 26 26 26 27 27 26 26 27 27 27 26 25 24 24 23 22 20
96 101 106 110 113 115 116 117 117 117 115 114 113 113 113 113 112 111 110 108 106 104 102 99 96 93 91 91 90 90 89 87 86 85 83 82 81 80 78 77 75 72 70 69 68 64 58 56 55 54 53 54 53 51 49 47 46 46 44 41 40 38 35 33 32 30 28 27 27 27 28 29 29 29 28 28 28 28 27 26 25 24 23 23 22 21
88 94 100 105 109 113 115 117 117 118 117 117 116 116 115 114 114 113 112 111 110 108 106 104 101 97 95 93 93 92 91 90 88 87 85 84 83 82 81 80 78 76 73 72 71 69 64 59 57 56 55 55 54 53 51 50 49 48 46 44 42 41 38 36 35 33 31 29 29 29 30 30 29 30 29 28 27 26 25 25 24 24 24 24 23 22
82 87 93 99 104 109 113 115 116 118 118 118 119 119 118 116 115 114 114 113 112 110 109 107 105 102 99 97 95 94 93 92 90 89 88 86 84 84 84 82 80 78 76 75 74 72 70 64 60 58 57 56 56 55 54 52 52 50 48 47 45 43 42 40 39 37 35 32 32 31 31 30 30 30 30 29 28 26 25 25 25 25 24 23 21 21
78 81 86 92 97 103 108 112 115 116 117 119 120 121 120 119 117 116 115 114 114 112 111 110 108 106 104 101 99 97 95 94 92 91 90 88 86 86 86 84 83 81 80 79 77 75 73 70 64 61 59 58 57 57 56 55 54 53 51 49 48 46 45 44 43 42 40 38 36 35 33 32 31 31 30 30 29 27 27 27 26 24 22 20 20 20
78 79 82 86 91 96 101 106 110 113 116 119 120 121 121 121 120 118 117 116 116 115 113 112 111 109 107 105 103 101 99 97 94 93 92 90 88 88 87 86 84 84 83 83 80 78 76 75 71 65 61 59 59 59 58 57 56 56 54 52 51 50 48 47 46 45 43 42 41 39 37 36 35 33 32 31 30 29 28 26 24 22 20 19 20 20
79 80 81 83 86 90 94 99 103 107 112 117 118 119 121 122 123 122 121 119 118 117 116 114 113 112 110 108 106 105 103 101 98 95 94 92 90 90 89 88 87 87 86 86 83 81 79 79 76 69 64 62 60 60 60 60 59 58 57 55 54 53 52 50 49 47 45 44 43 42 41 40 38 36 34 32 31 30 28 26 24 22 20 19 19 19
80 81 82 82 84 86 89 93 97 101 106 111 115 118 120 122 124 125 124 122 120 119 118 116 115 114 112 110 109 107 106 105 102 100 97 94 92 92 91 90 90 90 89 87 86 84 82 82 80 74 68 65 63 61 61 62 62 61 60 58 57 56 55 54 52 50 47 45 45 44 43 42 40 38 36 34 33 32 30 27 25 23 22 21 20 19
79 81 82 83 84 85 86 89 92 95 99 104 111 116 118 120 123 125 125 124 122 121 119 117 116 115 114 112 111 110 109 108 106 104 101 97 94 93 93 93 92 92 91 89 88 87 86 84 83 79 73 68 66 65 64 64 64 64 62 61 60 59 58 56 55 53 50 48 46 45 44 42 41 39 38 36 35 34 32 29 27 25 24 23 22 21
76 79 82 83 84 85 86 86 88 91 94 99 105 111 114 117 120 123 124 123 123 122 120 119 118 117 116 114 113 112 111 110 110 108 105 102 98 95 95 95 95 95 94 92 90 90 89 87 85 83 78 71 67 66 64 63 63 65 65 64 64 62 60 58 57 55 54 51 49 48 46 44 43 42 40 39 37 35 33 32 29 27 26 25 25 23
74 77 79 82 84 85 86 87 87 89 90 94 99 105 110 113 117 120 120 120 121 123 122 121 120 119 118 117 115 114 112 112 112 111 109 106 102 99 97 97 97 97 96 94 93 92 92 91 88 86 83 78 72 67 64 61 61 65 67 67 67 66 63 61 60 59 57 55 52 50 48 46 45 44 42 41 40 37 35 33 31 29 29 28 27 26
70 73 76 79 81 84 85 87 88 89 90 93 96 101 105 108 111 114 115 115 118 122 123 123 122 121 120 119 118 116 115 113 114 113 111 109 106 103 101 99 99 100 99 97 95 95 95 94 92 90 87 85 80 74 69 65 63 65 68 68 67 67 66 63 63 62 60 57 54 52 50 50 49 47 45 43 42 40 38 36 33 32 32 30 28 28
64 68 71 74 77 80 83 85 88 90 92 93 95 97 100 103 105 107 108 111 115 119 121 123 123 123 122 121 120 119 117 115 115 115 114 111 109 108 105 102 102 101 101 100 98 97 97 96 95 93 91 89 86 79 74 71 69 69 72 70 67 67 68 66 65 64 62 59 56 53 53 53 53 51 48 46 45 42 40 39 37 35 34 32 30 29
57 61 65 69 73 76 79 82 85 89 91 93 94 95 97 98 99 100 103 107 111 115 118 120 122 123 123 122 122 120 119 118 117 116 116 114 112 110 109 107 105 104 103 103 101 99 98 98 97 96 94 93 90 84 79 76 75 76 77 75 69 67 68 68 67 66 63 60 57 55 54 54 54 52 49 48 47 44 43 41 40 38 37 34 32 30
51 55 58 62 66 70 74 78 81 85 88 91 92 94 95 96 95 96 99 103 107 110 114 117 120 122 123 123 123 122 121 119 118 118 118 116 114 113 111 110 109 107 105 105 103 101 101 101 99 98 97 96 94 89 84 81 77 76 78 77 72 68 69 69 69 68 66 63 60 58 57 56 56 54 51 50 49 47 45 44 43 40 38 36 34 32
47 50 53 57 60 65 69 73 77 80 85 88 89 91 93 94 94 94 96 99 102 106 110 113 116 119 122 123 124 124 122 121 120 119 119 119 117 115 114 113 112 110 108 107 106 104 104 104 102 99 98 99 98 94 90 86 80 76 77 79 76 71 69 70 69 68 68 66 63 61 59 59 58 56 54 52 51 50 48 47 46 43 40 37 37 35
44 47 50 53 56 60 64 68 72 76 80 83 85 87 89 91 92 93 94 95 97 100 104 108 111 114 118 121 123 124 124 123 122 121 121 121 119 118 116 115 114 113 112 110 108 107 107 107 105 101 98 99 101 98 94 90 85 79 78 81 80 75 70 70 70 69 69 69 67 64 62 61 60 59 56 55 54 53 51 49 48 47 44 41 39 39
41 43 46 49 53 57 60 63 67 71 75 78 80 83 86 88 89 91 92 92 94 96 99 103 106 109 113 117 121 124 125 125 123 122 122 122 122 120 119 117 116 115 115 114 112 111 110 110 107 103 99 99 102 102 99 95 91 85 81 82 83 79 73 71 72 71 71 71 69 67 65 63 62 61 59 57 56 55 54 52 50 49 47 45 43 42
38 40 42 45 49 53 57 60 63 66 69 72 75 78 81 84 86 87 88 89 90 92 95 98 101 104 107 111 115 120 123 125 125 124 123 123 123 122 121 119 118 117 117 117 116 114 113 112 108 105 102 100 102 105 104 99 96 93 87 85 86 84 78 75 74 74 72 72 70 68 66 64 63 63 62 60 58 57 56 53 51 49 49 48 47 46
36 38 39 42 45 49 53 58 61 63 65 67 70 74 77 79 81 83 84 85 87 88 91 93 96 100 102 105 109 114 119 123 125 125 125 124 124 124 123 121 120 119 118 120 119 118 116 113 110 108 106 103 102 105 106 104 100 98 93 89 88 87 84 80 78 76 75 74 71 69 68 67 66 66 65 64 61 59 58 55 52 50 50 50 49 48
36 37 38 39 41 44 48 54 58 60 61 63 66 69 72 74 76 78 79 81 83 85 86 89 92 96 98 100 103 108 114 119 123 125 125 125 124 125 124 123 122 121 120 121 122 121 119 116 113 111 110 108 104 104 107 107 104 101 97 93 90 88 86 85 83 80 78 76 73 71 70 69 68 68 68 67 64 62 60 58 55 53 51 51 51 50
35 36 37 38 39 41 44 48 52 56 58 60 62 65 67 69 71 73 74 75 78 80 82 84 87 91 95 98 100 103 108 114 120 122 124 125 125 125 125 125 124 123 123 122 123 123 122 119 116 114 113 112 109 105 105 107 106 103 100 96 92 89 87 88 87 84 81 79 76 73 72 71 70 69 68 68 67 65 63 61 59 56 54 53 52 51
Wind_Direction
224 225 226 226 227 226 226 227 227 228 229 230 231 232 232 233 234 236 237 238 239 241 242 242 243 244 246 247 249 250 252 254 256 258 260 261 263 264 266 268 269 271 272 272 273 274 275 275 279 285 293 296 297 301 296 279 250 205 188 186 182 172 167 163 154 146 141 138 135 133 132 126 115 114 118 118 113 110 111 112 113 110 106 102 99 95
224 225 226 226 227 227 227 227 227 227 228 230 231 233 233 233 233 234 236 237 238 241 242 243 244 244 246 247 249 250 252 254 255 257 259 261 262 263 264 265 266 267 268 268 269 270 269 268 271 276 281 285 288 293 291 277 253 216 194 188 185 176 170 168 159 151 147 143 138 133 132 130 123 122 124 120 112 108 111 116 117 113 109 106 101 96
223 225 226 226 226 228 228 227 226 226 227 229 231 232 233 234 233 234 235 236 237 239 241 242 243 244 246 247 249 251 252 254 255 257 258 260 261 262 262 263 264 265 265 265 265 264 262 260 262 266 268 273 277 283 283 269 249 221 202 192 187 180 173 170 163 155 152 148 141 134 129 126 125 131 134 128 119 116 117 120 120 117 115 111 104 98
222 224 225 226 226 227 228 228 227 226 227 228 230 231 233 233 233 233 234 234 235 237 239 241 243 244 246 247 247 249 251 253 255 256 257 258 259 260 261 262 263 263 262 261 260 258 256 254 254 255 256 262 267 271 273 262 243 222 206 197 191 184 176 171 166 159 156 153 146 139 131 124 124 133 139 135 129 127 126 124 122 120 118 114 107 101
223 224 225 226 226 226 227 228 228 227 227 228 230 231 232 233 233 233 233 233 234 235 237 239 241 243 244 245 246 248 249 250 252 253 254 255 256 258 259 260 260 260 259 258 255 253 250 249 249 248 247 252 257 260 264 259 243 225 209 201 196 188 179 172 167 162 160 157 151 144 136 126 125 132 139 139 136 135 131 128 126 123 120 117 110 103
224 225 225 225 226 226 227 228 227 227 227 228 230 230 231 232 233 233 233 233 233 234 236 238 240 241 242 243 245 246 247 248 250 251 252 253 254 255 256 257 256 256 256 255 252 247 244 245 244 241 240 244 251 255 257 255 244 228 210 202 199 193 184 176 169 164 163 161 155 147 139 131 129 133 139 141 140 138 135 132 129 127 125 120 112 106
224 225 225 225 225 226 227 227 227 227 227 228 230 230 231 232 233 233 233 233 232 232 234 236 238 240 241 241 241 244 245 246 247 248 249 251 252 253 254 254 254 253 251 251 248 243 238 237 236 234 234 240 247 251 252 252 245 230 209 202 201 197 191 182 172 167 165 163 157 148 142 137 136 136 141 148 148 143 138 136 134 132 129 123 115 108
224 225 225 225 226 226 226 227 227 227 226 228 230 230 231 232 232 233 233 232 232 231 231 232 235 239 240 240 239 242 244 244 244 246 247 248 249 250 251 251 251 250 248 247 245 240 233 230 231 230 229 235 241 244 247 247 242 230 210 200 201 201 198 190 180 171 168 166 162 157 150 144 141 140 144 154 157 152 145 142 140 138 134 129 122 112
224 225 225 226 226 226 226 227 227 227 226 227 229 230 231 231 232 232 232 232 231 230 229 229 230 234 239 240 239 238 239 240 240 242 245 246 246 247 247 247 247 247 245 244 241 237 229 225 226 226 225 230 234 236 240 241 236 229 216 201 200 203 203 199 191 180 173 171 171 169 164 156 150 150 156 162 167 163 155 151 148 145 142 137 129 118
224 225 225 225 226 226 226 226 226 227 226 227 229 230 231 232 232 232 232 232 231 230 229 228 226 229 234 239 238 234 232 233 236 238 241 243 243 244 244 243 243 243 242 240 237 233 225 220 221 221 221 226 229 229 234 236 230 228 222 206 199 203 206 205 201 192 182 180 182 184 184 180 171 167 173 180 182 177 168 161 156 151 147 142 133 123
224 224 225 225 225 225 226 226 226 226 227 227 228 229 230 232 232 232 232 232 231 229 229 228 225 225 228 233 237 236 231 230 232 234 237 239 239 240 241 240 240 240 238 235 233 229 222 217 216 216 218 223 226 225 229 232 226 221 220 210 201 203 207 208 208 203 194 191 193 197 200 201 200 197 197 200 202 197 186 175 168 160 155 150 142 132
224 224 225 225 225 225 226 226 226 226 227 228 228 228 229 230 231 231 231 231 230 229 228 227 225 223 223 227 233 237 235 231 229 230 233 236 236 236 237 238 238 238 235 232 229 225 219 214 210 212 216 220 223 222 224 229 224 216 214 210 205 205 207 210 212 211 206 202 202 207 211 214 218 221 222 220 218 214 205 193 183 175 170 165 159 153
225 225 225 226 226 226 226 226 226 227 227 228 228 228 229 230 230 231 231 230 230 229 227 226 224 222 221 223 228 234 236 233 229 227 230 234 235 235 235 236 237 237 234 229 224 220 217 210 205 208 213 215 218 219 221 226 223 215 212 211 208 207 208 210 212 215 215 213 211 213 218 223 227 231 235 234 228 223 218 208 197 188 184 181 178 178
225 225 225 226 226 226 227 227 227 227 228 229 229 229 229 229 230 230 230 230 230 230 228 226 224 222 221 222 224 229 236 237 232 226 227 231 234 234 234 236 237 236 233 226 219 216 215 209 203 206 211 213 214 215 219 225 223 214 210 211 210 208 208 209 210 213 216 218 218 218 221 225 229 233 237 238 233 227 223 218 210 201 198 196 196 199
225 225 225 226 226 226 227 227 228 228 228 229 230 230 229 229 230 230 230 230 230 231 230 227 225 223 222 222 224 228 234 239 238 230 225 228 233 234 233 235 237 235 232 225 215 212 214 210 205 207 210 211 212 213 217 223 223 216 209 209 212 211 210 209 208 209 212 216 219 220 221 224 228 232 235 235 232 228 225 222 218 213 210 209 210 215
224 225 225 225 225 226 227 227 227 227 228 229 230 230 230 229 230 230 230 230 230 231 232 230 227 225 224 223 223 225 229 236 240 237 230 229 233 236 234 235 237 237 234 227 214 210 215 211 207 210 211 211 212 212 215 222 224 219 211 208 213 214 212 210 208 208 209 213 215 217 218 221 224 228 230 231 230 228 226 223 222 221 218 218 219 224
225 225 226 225 225 226 226 227 227 227 227 228 229 230 230 229 230 230 230 230 230 232 233 232 229 227 225 224 223 224 226 232 237 239 236 231 231 237 238 236 237 237 234 227 214 211 215 212 208 213 214 213 214 214 215 221 223 220 214 211 214 216 215 211 208 207 208 211 212 212 213 215 218 222 225 227 228 228 228 226 225 225 224 223 225 230
225 226 226 226 226 226 226 227 227 227 227 227 228 229 229 229 229 230 230 230 230 232 233 233 231 229 227 226 226 226 225 229 234 237 238 234 228 231 236 236 236 236 234 227 216 213 216 213 209 212 215 214 216 217 217 219 222 221 217 215 217 220 219 215 210 207 207 210 211 209 209 211 213 215 219 222 224 225 226 226 226 226 226 227 230 235
226 226 226 226 226 226 227 227 228 228 227 227 227 228 228 228 228 229 229 229 229 231 232 234 233 230 229 228 227 226 225 227 231 234 236 237 232 229 231 234 234 233 231 226 218 215 218 216 211 211 214 215 217 220 219 219 220 220 218 217 219 222 222 218 212 207 206 209 211 209 206 206 208 211 213 217 219 220 222 225 227 226 227 229 233 238
226 226 227 227 227 227 227 227 228 228 228 227 227 228 228 228 228 228 227 227 227 228 230 232 232 230 229 229 228 227 225 225 228 231 233 236 236 233 229 230 232 232 228 225 222 219 219 219 215 212 214 216 218 221 222 221 221 220 217 217 219 222 222 219 215 209 205 207 211 210 206 204 205 207 210 213 216 217 219 222 226 228 228 230 235 239
226 227 227 227 227 227 227 227 228 228 228 228 228 228 228 229 228 228 228 227 226 227 228 230 231 230 228 228 228 227 226 224 224 228 230 232 235 236 231 227 228 230 228 226 225 223 222 222 219 215 214 216 217 219 221 221 219 218 216 216 218 221 222 221 219 212 207 207 210 210 207 205 204 205 208 212 213 215 216 219 223 227 228 230 235 240
226 226 227 227 227 227 228 228 228 228 227 227 228 228 228 229 229 229 229 229 228 227 227 228 230 230 228 227 227 226 225 224 223 224 227 229 232 235 234 230 226 227 227 226 227 225 224 224 222 217 216 217 218 219 220 220 218 218 216 215 218 220 222 221 219 215 209 208 210 212 210 208 207 206 207 210 212 213 215 218 221 225 228 231 235 241
225 225 226 226 226 227 228 228 228 228 228 228 227 227 227 228 228 228 229 230 229 229 228 229 230 230 228 227 226 225 225 224 223 223 224 226 229 232 235 233 229 227 226 226 227 227 225 225 224 220 219 220 220 220 220 220 219 218 216 215 217 220 222 221 219 216 211 209 210 212 212 212 212 211 210 210 210 212 215 218 221 225 228 231 235 241
225 225 226 226 226 227 227 228 228 228 228 228 228 227 227 228 228 228 228 229 229 229 228 228 229 230 229 228 226 225 224 223 222 222 221 223 225 229 233 235 233 230 227 226 227 228 228 227 226 224 222 222 222 221 220 219 218 216 215 215 217 220 222 222 219 216 213 211 211 213 214 214 214 215 216 214 213 213 214 217 221 225 228 231 235 240
225 225 226 227 227 227 227 228 228 228 228 228 228 228 227 228 228 228 228 228 229 229 228 228 228 229 229 229 227 225 224 223 222 221 221 221 222 224 229 234 235 232 229 226 225 226 226 226 226 227 226 225 224 223 222 221 219 216 215 215 217 220 222 222 220 217 214 213 213 214 216 217 217 217 219 220 220 219 218 219 222 227 231 234 238 242
226 227 227 228 228 228 227 228 228 228 228 229 229 229 228 228 228 228 228 228 228 229 228 228 228 228 228 228 228 227 225 223 222 221 221 221 220 221 223 229 235 235 231 227 224 223 223 221 222 226 228 229 228 225 225 224 221 219 217 216 218 221 223 223 221 218 215 214 215 217 218 220 220 220 220 222 225 227 227 227 228 231 234 238 242 246
227 228 228 229 229 229 228 229 229 229 229 229 229 229 229 229 229 229 229 228 228 228 228 228 227 227 227 227 228 227 226 224 223 221 221 222 221 220 220 224 230 235 234 229 223 221 222 219 218 221 224 226 227 227 228 228 225 222 221 218 219 223 225 224 222 219 215 213 215 218 220 222 223 222 222 223 227 232 235 237 237 237 237 239 243 246
227 228 228 229 230 230 229 229 229 229 229 229 229 230 230 230 230 229 229 229 228 228 228 227 227 227 226 226 227 227 227 225 224 222 221 222 222 220 219 221 225 230 235 233 225 219 220 220 218 217 218 220 222 223 226 229 227 226 224 222 222 224 226 227 225 220 216 214 215 217 220 223 225 223 222 222 226 231 236 239 241 240 240 240 241 243
227 228 228 229 230 230 229 229 229 229 229 229 229 229 229 230 230 230 230 230 229 229 228 227 227 227 226 226 226 226 226 225 224 223 221 222 222 221 219 219 221 225 231 234 230 221 218 220 220 217 217 217 217 218 221 223 223 223 223 222 223 224 224 227 227 222 218 216 216 216 218 222 225 224 221 219 221 225 230 235 237 238 238 238 237 238
227 228 229 229 230 230 230 229 229 229 229 229 229 229 229 229 229 229 229 230 230 229 229 227 226 226 226 226 225 225 225 225 224 223 222 221 222 221 220 219 220 222 226 232 233 226 218 218 220 219 218 218 217 216 218 220 221 220 219 217 218 220 220 222 224 222 218 216 216 216 217 219 222 223 220 217 216 218 221 226 229 231 233 234 234 234
227 228 229 229 230 230 230 230 229 229 229 229 229 229 229 229 229 229 229 229 229 229 229 228 227 226 226 225 225 225 225 224 224 223 222 221 221 221 220 219 219 220 222 227 232 231 222 216 217 219 219 218 218 216 216 218 220 221 219 216 216 216 216 217 220 221 219 216 215 215 215 216 218 220 220 218 215 215 215 217 220 223 227 229 229 229
227 227 228 229 230 231 231 231 230 229 229 229 229 229 229 229 229 229 229 229 228 228 229 228 227 226 226 225 225 225 225 224 223 223 222 221 221 221 221 220 219 219 220 223 228 231 228 219 215 217 219 218 218 217 216 217 219 220 219 218 217 216 215 214 216 218 217 216 216 216 216 216 217 219 221 221 218 216 214 213 215 218 221 224 225 226
229 228 228 229 230 231 231 231 231 230 229 229 229 229 229 229 229 229 229 229 229 228 228 228 227 226 226 225 225 226 226 224 223 222 222 221 220 221 221 220 219 218 219 221 224 228 230 225 217 215 217 218 218 218 217 216 218 220 220 218 218 218 216 215 214 214 214 215 217 218 218 218 218 219 221 223 222 219 216 214 214 215 217 220 223 226
230 229 229 229 230 230 231 231 231 231 230 229 229 229 229 229 229 229 229 230 229 229 228 228 228 227 226 225 225 225 226 225 224 222 222 221 220 220 221 221 220 219 219 220 222 225 228 229 223 216 215 218 218 218 218 217 218 219 220 220 219 219 218 216 216 214 212 213 215 217 217 218 219 220 222 225 225 222 220 218 216 214 214 217 221 224
231 231 230 230 230 230 231 231 231 232 231 230 229 229 230 230 229 229 229 229 229 229 228 228 228 227 226 225 225 225 225 225 225 223 222 220 220 220 220 220 220 220 219 220 221 222 225 228 227 219 214 216 219 218 217 217 218 219 220 221 220 220 219 218 217 217 214 213 214 215 216 217 218 219 221 224 227 227 226 226 223 219 216 216 219 225
231 231 231 231 231 231 232 231 231 231 232 232 231 229 229 230 230 229 228 228 229 229 228 228 227 227 226 225 225 225 225 225 224 224 222 220 219 220 220 220 220 220 220 220 220 221 223 226 228 224 216 214 217 219 217 215 216 218 219 220 221 221 221 220 219 218 217 216 216 215 215 216 216 217 219 222 226 229 231 233 233 230 226 223 224 228
231 231 232 232 232 232 232 232 232 231 232 233 233 231 230 229 230 229 229 228 228 229 229 228 228 227 227 226 225 225 225 225 224 224 223 221 219 219 219 219 219 220 220 220 220 221 222 225 227 226 222 216 215 218 218 215 214 217 218 218 220 221 221 221 221 220 218 218 219 219 218 217 217 217 219 220 223 227 229 232 235 236 235 233 231 232
232 232 233 233 233 233 233 233 233 232 232 233 233 233 231 230 230 230 229 229 228 228 228 229 228 228 227 226 225 225 225 225 225 224 223 221 219 218 219 219 219 220 220 219 220 220 221 223 226 226 225 221 215 216 219 217 214 216 218 218 219 220 221 221 222 221 220 220 221 221 221 221 220 220 220 221 223 225 227 228 231 234 237 238 238 237
232 232 233 233 234 234 234 234 234 233 232 232 234 234 233 231 230 230 230 229 229 228 228 228 228 228 228 227 226 225 225 225 225 224 223 222 220 218 218 218 219 219 220 219 219 220 221 222 224 225 225 222 214 212 217 219 217 217 218 218 218 219 220 221 222 222 221 221 221 221 222 223 223 222 222 222 224 225 226 226 227 230 234 238 240 240
231 231 232 233 233 234 234 234 235 234 233 233 234 234 233 232 231 230 230 229 230 229 228 227 228 228 228 227 226 225 224 225 225 225 223 222 220 219 218 218 218 219 220 218 218 219 220 221 222 224 224 222 217 213 214 217 218 218 217 218 219 219 219 220 221 222 222 221 221 221 221 223 225 225 225 225 226 227 228 227 227 228 230 233 237 239
232 232 232 232 232 233 234 234 234 235 234 234 234 234 234 233 232 231 230 229 229 229 228 227 227 227 227 227 226 225 224 224 225 226 225 222 220 219 218 218 218 219 219 219 217 217 219 219 220 223 224 223 222 219 216 215 216 218 218 217 219 220 220 220 222 222 222 221 220 221 221 222 224 225 226 227 229 230 231 230 229 229 230 231 234 237
233 233 233 233 233 233 233 234 234 234 234 234 234 235 235 234 233 232 231 230 229 229 229 228 227 227 227 227 227 226 225 224 224 225 225 224 221 219 218 217 218 218 219 219 218 217 218 219 219 221 223 223 222 220 216 214 214 216 217 216 216 218 219 221 223 223 223 222 221 221 222 223 224 225 225 226 229 230 232 234 234 233 232 231 232 235
234 234 234 233 233 233 234 234 234 235 235 235 235 235 235 235 233 232 231 231 230 229 229 228 227 226 226 226 227 226 225 224 223 224 225 224 223 220 218 217 218 218 218 219 218 217 217 219 219 220 221 223 223 220 217 216 215 215 216 215 213 216 218 220 222 224 224 223 222 221 223 225 227 228 228 229 230 231 231 233 236 236 234 232 233 235
236 236 235 234 233 233 234 234 234 235 236 236 236 236 236 236 234 232 231 230 230 229 229 228 227 226 226 226 226 226 225 224 223 223 224 224 223 222 219 217 217 218 218 219 218 218 217 218 219 219 220 222 223 220 218 218 218 217 217 216 213 215 218 219 221 223 224 224 223 222 222 224 226 229 231 231 233 234 232 232 234 235 234 234 235 238
238 237 236 235 234 233 233 233 233 234 235 236 236 236 237 236 235 234 232 230 230 229 229 228 227 225 225 225 225 225 225 225 224 223 223 224 223 222 221 218 217 217 218 218 218 218 218 218 218 218 219 221 222 221 218 218 218 218 217 216 214 214 217 219 220 222 224 224 224 223 223 223 225 227 229 230 233 235 234 232 232 232 233 235 237 240
237 237 237 236 235 234 234 233 233 233 234 235 235 236 236 236 236 235 233 232 230 229 229 229 228 226 225 224 224 224 224 224 223 223 223 223 223 222 221 219 217 217 217 218 218 218 218 218 217 217 218 219 222 222 220 217 217 217 216 216 214 212 214 217 220 222 223 223 223 223 223 223 225 226 226 228 231 233 233 232 232 232 233 236 238 241
238 237 236 236 236 236 235 234 234 233 234 234 235 235 235 236 236 235 234 233 231 229 229 229 229 228 225 224 223 224 224 223 223 222 222 223 223 222 221 220 218 216 217 218 218 218 218 218 216 215 217 219 220 222 221 218 216 216 215 215 215 213 213 216 218 220 222 222 222 222 222 223 225 227 227 227 229 231 232 232 233 234 235 235 237 240
242 240 238 236 235 235 236 236 235 235 234 234 234 235 235 235 235 235 235 234 232 230 229 228 228 228 227 224 223 223 223 223 223 222 222 222 222 222 221 220 219 217 216 217 218 218 218 219 216 214 215 217 219 221 222 220 217 216 216 216 216 214 214 215 217 218 220 221 221 221 221 223 225 228 229 228 228 229 231 231 232 234 235 235 236 238
248 245 243 240 237 235 235 235 236 236 235 234 234 234 235 235 235 235 234 234 233 232 230 228 227 228 228 226 224 223 223 223 223 222 221 221 221 221 221 220 219 218 216 216 218 218 218 219 217 214 214 216 218 219 221 220 219 218 217 216 216 216 215 214 216 218 219 220 220 221 221 222 225 228 230 230 230 230 231 232 232 232 233 235 238 240
254 250 247 245 242 238 236 235 235 235 235 235 234 234 234 235 235 235 234 233 233 233 231 229 227 226 226 226 224 223 222 223 223 222 221 221 220 221 221 220 219 218 217 215 217 218 219 218 218 216 214 214 216 217 219 220 220 219 218 217 216 216 216 215 216 218 219 220 220 220 220 222 224 227 229 231 231 231 232 233 232 232 233 236 239 241
259 254 251 248 246 243 240 238 236 235 235 234 234 235 235 234 235 235 234 233 233 233 232 230 227 226 225 225 224 223 221 222 222 222 221 221 220 220 220 220 219 218 218 216 215 217 219 218 218 217 215 214 214 216 218 219 219 219 218 217 217 216 216 216 216 217 219 221 221 220 220 221 223 225 227 230 231 231 232 233 234 233 234 237 240 242